Location: ????
(30.1475°N, 31.1342°E)
Time: 08:44:19
(UTC+00:00)

Meteor 1-14 Rocket - Pass Details

Date: 04 April 2023
Orbit: 834 x 918 km, 81.3° (Epoch: 02 June)

Event Time Altitude Azimuth Distance (km) Brightness Sun altitude
Rises 23:53:46 0° 12° (NNE) 3,400 8.0 -44.6°
Reaches altitude 10° 23:56:54 10° 30° (NNE) 2,473 7.2 -44.1°
Enters shadow 23:58:52 16° 49° (NE) 2,068 6.7 -43.8°
